DW9424 Weather Reports


Display with metric or nautical units.
time (UTC)temp
F
wind
direction
speed
MPH
gust
MPH
rain 1hr
in
rain 24hr
in
rain mn
in
humidity
%
barometer
mb
20181023184003 61 253 2.0 5.0 0.00 0.00 0.00 54 1012.9
20181023183003 61 269 3.0 8.0 0.00 0.00 0.00 55 1013.1
20181023180004 59 275 3.0 8.0 0.00 0.00 0.00 58 1013.6
20181023174004 59 263 2.0 4.0 0.00 0.00 0.00 61 1013.8
20181023173003 58 248 4.0 7.0 0.00 0.00 0.00 60 1013.9
20181023172003 58 256 3.0 6.0 0.00 0.00 0.00 61 1014.3
20181023162004 56 244 1.0 4.0 0.00 0.00 0.00 65 1015.3
20181023161003 56 241 1.0 3.0 0.00 0.00 0.00 66 1015.5
20181023160003 56 274 2.0 6.0 0.00 0.00 0.00 67 1016.0
20181023155003 56 266 1.0 4.0 0.00 0.00 0.00 68 1016.3
20181023153005 55 238 0.0 3.0 0.00 0.00 0.00 72 1016.4
20181023151003 52 264 1.0 3.0 0.00 0.00 0.00 77 1016.6
20181023145003 51 210 0.0 3.0 0.00 0.00 0.00 79 1016.8
20181023144003 51 204 0.0 4.0 0.00 0.00 0.00 80 1017.0
20181023143004 50 210 0.0 2.0 0.00 0.00 0.00 82 1017.1
20181023142004 50 233 0.0 2.0 0.00 0.00 0.00 82 1017.2
20181023140003 49 245 0.0 2.0 0.00 0.00 0.00 83 1017.5
20181023132004 48 222 0.0 2.0 0.00 0.00 0.00 84 1017.6
20181023131004 48 211 0.0 3.0 0.00 0.00 0.00 85 1017.5
20181023130004 48 205 0.0 2.0 0.00 0.00 0.00 85 1017.6
20181023120003 46 171 0.0 3.0 0.00 0.00 0.00 86 1017.8
20181023115003 45 146 1.0 3.0 0.00 0.00 0.00 86 1017.7
20181023114003 45 146 1.0 6.0 0.00 0.00 0.00 86 1017.6
20181023113003 45 139 1.0 3.0 0.00 0.00 0.00 86 1017.5
20181023112004 45 148 1.0 4.0 0.00 0.00 0.00 87 1017.7
20181023111004 45 154 0.0 3.0 0.00 0.00 0.00 87 1017.7
20181023110004 44 153 0.0 3.0 0.00 0.00 0.00 87 1017.8
20181023105004 44 0 0.0 0.0 0.00 0.00 0.00 87 1018.0
20181023103004 44 154 0.0 2.0 0.00 0.00 0.00 86 1018.0
20181023102004 44 159 0.0 2.0 0.00 0.00 0.00 86 1018.1
20181023092003 44 209 0.0 2.0 0.00 0.00 0.00 85 1018.4
20181023091003 44 227 0.0 1.0 0.00 0.00 0.00 84 1018.5
20181023090003 44 0 0.0 0.0 0.00 0.00 0.00 84 1018.5
20181023085003 44 0 0.0 0.0 0.00 0.00 0.00 84 1018.6
20181023084003 44 0 0.0 0.0 0.00 0.00 0.00 83 1018.7
20181023080003 45 0 0.0 0.0 0.00 0.00 0.00 82 1019.0
20181023075003 45 0 0.0 0.0 0.00 0.00 0.00 81 1019.3
20181023074003 45 0 0.0 0.0 0.00 0.00 0.00 80 1019.4
20181023073003 46 0 0.0 0.0 0.00 0.00 0.00 79 1019.4
20181023072004 46 0 0.0 0.0 0.00 0.00 0.00 79 1019.4
20181023071004 46 0 0.0 0.0 0.00 0.00 0.00 78 1019.5
20181023065004 46 0 0.0 0.0 0.00 0.00 0.00 77 1019.5
20181023061003 46 283 0.0 2.0 0.00 0.00 0.00 74 1020.1
20181023060004 46 283 0.0 1.0 0.00 0.00 0.00 74 1020.1
20181023054004 46 256 1.0 2.0 0.00 0.00 0.00 73 1020.4
20181023053004 46 258 1.0 2.0 0.00 0.00 0.00 73 1020.4
20181023052004 46 256 1.0 4.0 0.00 0.00 0.00 73 1020.5
20181023045003 45 257 2.0 4.0 0.00 0.00 0.00 74 1020.9
20181023044004 45 253 2.0 4.0 0.00 0.00 0.00 74 1021.0
20181023041004 45 267 2.0 4.0 0.00 0.00 0.00 74 1021.0
20181023033004 45 257 1.0 4.0 0.00 0.00 0.00 74 1021.2
20181023032004 45 252 1.0 3.0 0.00 0.00 0.00 73 1021.1
20181023030004 45 272 1.0 2.0 0.00 0.00 0.00 73 1021.2
20181023022003 46 230 0.0 2.0 0.00 0.00 0.00 71 1021.4
20181023014003 46 212 0.0 3.0 0.00 0.00 0.00 67 1021.4
20181023013003 47 208 0.0 3.0 0.00 0.00 0.00 66 1021.5
20181023012003 47 200 0.0 3.0 0.00 0.00 0.00 65 1021.5
20181023011003 47 208 1.0 4.0 0.00 0.00 0.00 65 1021.5
20181023010003 47 204 1.0 4.0 0.00 0.00 0.00 64 1021.4
20181023005003 47 221 0.0 3.0 0.00 0.00 0.00 64 1021.3
20181023003004 47 180 0.0 2.0 0.00 0.00 0.00 64 1021.2
20181023002004 47 193 0.0 3.0 0.00 0.00 0.00 64 1021.1
20181022235004 46 216 0.0 2.0 0.00 0.00 0.00 64 1021.1
20181022232004 46 191 1.0 6.0 0.00 0.00 0.00 64 1021.1
20181022223003 47 173 0.0 1.0 0.00 0.00 0.00 64 1021.0
20181022222003 47 173 0.0 2.0 0.00 0.00 0.00 64 1021.0
20181022221003 47 0 0.0 0.0 0.00 0.00 0.00 65 1020.9
20181022220004 47 0 0.0 0.0 0.00 0.00 0.00 65 1020.8
20181022214003 48 173 0.0 1.0 0.00 0.00 0.00 64 1020.8
20181022212003 48 173 0.0 1.0 0.00 0.00 0.00 64 1020.8
20181022211003 48 0 0.0 0.0 0.00 0.00 0.00 63 1020.8
20181022210004 48 0 0.0 0.0 0.00 0.00 0.00 64 1020.9
20181022205004 48 0 0.0 0.0 0.00 0.00 0.00 65 1020.8
20181022203004 48 282 0.0 1.0 0.00 0.00 0.00 62 1020.8
20181022202003 48 288 0.0 2.0 0.00 0.00 0.00 62 1021.0
20181022200004 48 254 1.0 4.0 0.00 0.00 0.00 61 1021.1
20181022195003 48 265 1.0 4.0 0.00 0.00 0.00 62 1021.1
20181022194003 48 259 2.0 6.0 0.00 0.00 0.00 60 1021.1
20181022193003 48 245 2.0 5.0 0.00 0.00 0.00 60 1021.2
20181022192004 49 246 1.0 7.0 0.00 0.00 0.00 60 1021.3
20181022190004 48 241 0.0 2.0 0.00 0.00 0.00 62 1021.2